Notices

What's New in latest Release from April 7th, 2021:

- Updated Glossary, including Speed of Maximum Gust, and Total Hourly Precipitation

- Updated national and regional climate services offices contacts and prices information

- Addition of station inventory lists for 1981-2010, 1971-2000, and 1961-1990 Normals.

If you haven't already, please take our survey and provide feedback about our website: https://eccc.sondage-survey.ca/f/LanguageSelection.aspx?s=442ca660-fcf1-47c0-95a9-59707d6fd709

Hourly Data Report for May 23, 2020

TRENTON A
ONTARIO
Current Station Operator: DND

44°07'00.000" N
77°32'00.000" W
86.30 m
6158875
71621
YTR

Download Data

Hourly Data (May 2020)
Hourly Data Report for May 23, 2020
TIME
LST
Temp Definition
°C
Dew Point Definition
°C
Rel Hum Definition
%
Precip. Amount Definition
mm

Wind Dir Definition
10's deg

Wind Spd Definition
km/h
Visibility Definition
km
Stn Press Definition
kPa
Hmdx Definition


Wind Chill Definition


Weather Definition


00:00 15.6 10.2 70   21 9 24.1 100.57     Mainly Clear
01:00 15.3 9.4 68   24 4 24.1 100.53     Mainly Clear
02:00 12.9 9.1 78   3 4 24.1 100.53     Mostly Cloudy
03:00 11.8 8.5 80   4 5 24.1 100.56     Mostly Cloudy
04:00 10.9 8.2 83   3 5 24.1 100.54     Mainly Clear
05:00 10.3 7.5 83   5 8 24.1 100.53     Mainly Clear
06:00 13.4 9.8 79   35 4 24.1 100.63     Mainly Clear
07:00 17.3 11.1 67     0 24.1 100.68     Mainly Clear
08:00 19.8 11.5 59   6 5 24.1 100.73     Mainly Clear
09:00 22.3 12.8 55   13 5 24.1 100.69 25   Mainly Clear
10:00 24.0 11.7 46   12 9 24.1 100.72 26   Mainly Clear
11:00 24.9 12.0 45   12 8 24.1 100.76 27   Mainly Clear
12:00 26.2 12.5 43   13 9 24.1 100.79 29   Mainly Clear
13:00 25.2 13.6 49   22 11 24.1 100.77 28   Mainly Clear
14:00 24.4 14.4 54   22 13 24.1 100.72 28   Mainly Clear
15:00 23.8 13.7 53   22 13 24.1 100.70 27   Mainly Clear
16:00 23.8 14.1 55   23 9 24.1 100.64 27   Mainly Clear
17:00 24.0 14.1 54   23 9 24.1 100.62 27   Mostly Cloudy
18:00 21.8 13.2 58   22 8 24.1 100.63 25   Mostly Cloudy
19:00 20.2 12.8 62   20 11 24.1 100.69     Mostly Cloudy
20:00 17.6 12.3 71   16 4 24.1 100.74     Mainly Clear
21:00 16.0 11.9 77     0 24.1 100.81     Mainly Clear
22:00 15.0 11.4 79     0 24.1 100.84     Mainly Clear
23:00 13.7 10.9 83   5 9 24.1 100.84     Clear

Notes on Data Quality.

Legend

  • E = Estimated
  • M = Missing
  • NA = Not Available*
  • [empty] = Indicates an unobserved value
Date modified: